Location: Kumla
(59.1265°N, 15.1401°E)
Time: 20:54:16
(UTC+01:00)

Vanguard 1 Rocket - Pass Details

Date: 12 December 2023
Orbit: 654 x 4218 km, 34.3° (Epoch: 21 February)

Event Time Altitude Azimuth Distance (km) Brightness Sun altitude
Rises 07:06:07 0° 259° (W) 8,058 11.7 -10.8°
Reaches altitude 10° 07:13:52 10° 248° (WSW) 6,532 11.4 -10.0°
Maximum altitude 07:26:34 22° 207° (SSW) 4,390 10.9 -8.5°
Drops below altitude 10° 07:35:14 10° 163° (SSE) 4,301 11.7 -7.6°
Sets 07:38:56 0° 148° (SSE) 4,811 12.5 -7.2°
